VK4VS Weather Reports


time (UTC)temp
C
wind
direction
speed
KPH
gust
KPH
rain 1hr
cm
rain 24hr
cm
rain mn
cm
humidity
%
barometer
mb
20260510033003 17 118 6.4 12.9 0.00 0.00 0.00 63 1024.7
20260510030004 17 137 9.7 20.9 0.00 0.00 0.00 67 1024.7
20260510023003 18 97 8.0 17.7 0.00 0.00 0.00 64 1025.2
20260510020004 17 110 8.0 16.1 0.00 0.00 0.00 63 1025.3
20260510013004 17 136 8.0 19.3 0.00 0.00 0.00 67 1025.6
20260510010004 16 102 8.0 17.7 0.00 0.00 0.00 69 1026.2
20260510003004 16 133 9.7 17.7 0.00 0.00 0.00 73 1026.5
20260510000004 15 129 9.7 16.1 0.00 0.00 0.00 76 1027.1
20260509233004 15 107 8.0 16.1 0.00 0.00 0.00 78 1026.8
20260509230004 13 128 9.7 19.3 0.00 0.00 0.00 83 1026.1
20260509223004 12 142 14.5 22.5 0.00 0.00 0.00 87 1025.8
20260509220004 12 162 9.7 17.7 0.00 0.00 0.00 86 1025.6
20260509213004 10 149 6.4 14.5 0.00 0.00 0.00 93 1025.4
20260509210004 7 142 4.8 6.4 0.00 0.00 0.00 95 1024.9
20260509203004 7 132 4.8 6.4 0.00 0.00 0.00 95 1024.4
20260509200004 7 122 3.2 4.8 0.00 0.00 0.00 93 1024.2
20260509193004 7 124 3.2 4.8 0.00 0.00 0.00 92 1023.8
20260509190004 8 123 3.2 4.8 0.00 0.00 0.00 93 1023.8
20260509183003 8 122 4.8 6.4 0.00 0.00 0.00 92 1023.5
20260509180004 8 145 4.8 6.4 0.00 0.00 0.00 92 1023.4
20260509173004 8 118 3.2 6.4 0.00 0.00 0.00 92 1023.2
20260509170004 8 116 3.2 6.4 0.00 0.00 0.00 90 1023.1
20260509163004 9 149 8.0 14.5 0.00 0.00 0.00 86 1023.2
20260509160003 10 160 8.0 14.5 0.00 0.00 0.00 84 1023.3
20260509153004 9 147 6.4 12.9 0.00 0.00 0.00 84 1023.3
20260509150004 9 126 4.8 9.7 0.00 0.00 0.00 85 1023.6
20260509143004 9 107 3.2 4.8 0.00 0.00 0.00 84 1023.6
20260509140005 9 121 4.8 6.4 0.00 0.00 0.00 85 1023.6
20260509133004 9 118 4.8 6.4 0.00 0.00 0.00 84 1023.6
20260509130004 9 98 3.2 6.4 0.00 0.00 0.00 83 1023.7
20260509123004 9 91 1.6 6.4 0.00 0.00 0.00 82 1023.9
20260509120003 10 94 3.2 6.4 0.00 0.00 0.00 81 1023.8
20260509113003 10 82 3.2 6.4 0.00 0.00 0.00 80 1023.7
20260509110004 10 120 4.8 9.7 0.00 0.00 0.00 78 1023.6
20260509103003 10 154 4.8 6.4 0.00 0.00 0.00 77 1023.6
20260509100004 11 146 6.4 12.9 0.00 0.00 0.00 75 1023.6
20260509093003 11 114 4.8 9.7 0.00 0.00 0.00 74 1023.3
20260509090005 11 140 6.4 11.3 0.00 0.00 0.00 71 1022.8
20260509083004 11 132 4.8 11.3 0.00 0.00 0.00 68 1022.7
20260509080004 12 86 3.2 8.0 0.00 0.00 0.00 65 1022.3
20260509073004 12 116 3.2 9.7 0.00 0.00 0.00 63 1021.9
20260509070004 14 150 6.4 12.9 0.00 0.00 0.00 57 1021.5
20260509063004 15 138 6.4 16.1 0.00 0.00 0.00 51 1021.3
20260509060004 16 134 6.4 14.5 0.00 0.00 0.00 48 1021.0
20260509053004 17 120 4.8 12.9 0.00 0.00 0.00 46 1020.9
20260509050004 17 114 6.4 12.9 0.00 0.00 0.00 45 1020.9
20260509043004 17 126 4.8 14.5 0.00 0.00 0.00 46 1020.9
20260509040004 17 118 6.4 19.3 0.00 0.00 0.00 46 1021.0